| time (UTC) | temp F | wind direction | speed MPH | gust MPH | rain 1hr in | rain 24hr in | rain mn in | humidity % | barometer mb |
| 20260505200942 | 86 | 216 | 9.0 | 16.0 | 0.00 | 0.00 | 0.00 | 64 | 1002.8 |
| 20260505200443 | 85 | 223 | 9.0 | 17.0 | 0.00 | 0.00 | 0.00 | 64 | 1002.8 |
| 20260505195942 | 85 | 235 | 10.0 | 17.0 | 0.00 | 0.00 | 0.00 | 63 | 1002.7 |
| 20260505195442 | 86 | 229 | 7.0 | 14.0 | 0.00 | 0.00 | 0.00 | 63 | 1002.7 |
| 20260505194942 | 86 | 228 | 8.0 | 13.0 | 0.00 | 0.00 | 0.00 | 63 | 1002.6 |
| 20260505193442 | 86 | 245 | 9.0 | 21.0 | 0.00 | 0.00 | 0.00 | 62 | 1002.8 |
| 20260505192442 | 86 | 217 | 12.0 | 21.0 | 0.00 | 0.00 | 0.00 | 63 | 1002.7 |
| 20260505191942 | 86 | 244 | 9.0 | 21.0 | 0.00 | 0.00 | 0.00 | 66 | 1002.6 |
| 20260505191442 | 85 | 219 | 9.0 | 17.0 | 0.00 | 0.00 | 0.00 | 65 | 1002.7 |
| 20260505190943 | 85 | 226 | 10.0 | 17.0 | 0.00 | 0.00 | 0.00 | 67 | 1002.7 |
| 20260505190443 | 85 | 213 | 7.0 | 15.0 | 0.00 | 0.00 | 0.00 | 66 | 1002.7 |
| 20260505185942 | 84 | 212 | 9.0 | 17.0 | 0.00 | 0.00 | 0.00 | 66 | 1002.7 |
| 20260505184943 | 84 | 217 | 7.0 | 20.0 | 0.00 | 0.00 | 0.00 | 66 | 1002.6 |
| 20260505182942 | 84 | 222 | 9.0 | 18.0 | 0.00 | 0.00 | 0.00 | 67 | 1002.8 |
| 20260505182443 | 83 | 218 | 9.0 | 17.0 | 0.00 | 0.00 | 0.00 | 67 | 1002.8 |
| 20260505180943 | 83 | 237 | 10.0 | 18.0 | 0.00 | 0.00 | 0.00 | 67 | 1002.7 |
| 20260505180443 | 83 | 218 | 9.0 | 18.0 | 0.00 | 0.00 | 0.00 | 68 | 1002.8 |
| 20260505175943 | 83 | 225 | 10.0 | 20.0 | 0.00 | 0.00 | 0.00 | 67 | 1002.9 |
| 20260505175443 | 83 | 219 | 10.0 | 20.0 | 0.00 | 0.00 | 0.00 | 68 | 1002.9 |
| 20260505174943 | 83 | 223 | 9.0 | 21.0 | 0.00 | 0.00 | 0.00 | 70 | 1002.8 |
| 20260505174443 | 82 | 222 | 14.0 | 22.0 | 0.00 | 0.00 | 0.00 | 69 | 1002.8 |
| 20260505173943 | 82 | 215 | 14.0 | 22.0 | 0.00 | 0.00 | 0.00 | 70 | 1002.8 |
| 20260505173444 | 81 | 217 | 14.0 | 22.0 | 0.00 | 0.00 | 0.00 | 72 | 1002.8 |
| 20260505172943 | 80 | 217 | 14.0 | 22.0 | 0.00 | 0.00 | 0.00 | 72 | 1002.8 |
| 20260505172443 | 80 | 220 | 13.0 | 22.0 | 0.00 | 0.00 | 0.00 | 73 | 1002.8 |
| 20260505171943 | 80 | 200 | 12.0 | 20.0 | 0.00 | 0.00 | 0.00 | 74 | 1002.7 |
| 20260505171443 | 80 | 216 | 10.0 | 20.0 | 0.00 | 0.00 | 0.00 | 75 | 1002.8 |
| 20260505170943 | 79 | 214 | 10.0 | 16.0 | 0.00 | 0.00 | 0.00 | 75 | 1002.8 |
| 20260505165943 | 78 | 202 | 11.0 | 18.0 | 0.00 | 0.00 | 0.00 | 76 | 1002.9 |
| 20260505165443 | 78 | 205 | 11.0 | 20.0 | 0.00 | 0.00 | 0.00 | 76 | 1002.8 |
| 20260505164944 | 78 | 206 | 9.0 | 20.0 | 0.00 | 0.00 | 0.00 | 76 | 1002.8 |
| 20260505164443 | 77 | 211 | 12.0 | 17.0 | 0.00 | 0.00 | 0.00 | 76 | 1002.8 |
| 20260505163943 | 77 | 205 | 10.0 | 20.0 | 0.00 | 0.00 | 0.00 | 76 | 1002.9 |
| 20260505163443 | 77 | 208 | 12.0 | 20.0 | 0.00 | 0.00 | 0.00 | 76 | 1002.9 |
| 20260505162943 | 77 | 207 | 10.0 | 18.0 | 0.00 | 0.00 | 0.00 | 77 | 1002.8 |
| 20260505161945 | 76 | 210 | 11.0 | 21.0 | 0.00 | 0.00 | 0.00 | 77 | 1002.8 |
| 20260505160943 | 76 | 216 | 14.0 | 23.0 | 0.00 | 0.00 | 0.00 | 77 | 1002.6 |
| 20260505160444 | 76 | 203 | 12.0 | 22.0 | 0.00 | 0.00 | 0.00 | 77 | 1002.6 |
| 20260505152444 | 76 | 210 | 11.0 | 26.0 | 0.00 | 0.00 | 0.00 | 78 | 1002.4 |
| 20260505151943 | 76 | 203 | 16.0 | 26.0 | 0.00 | 0.00 | 0.00 | 78 | 1002.1 |
| 20260505151444 | 76 | 211 | 14.0 | 24.0 | 0.00 | 0.00 | 0.00 | 78 | 1002.3 |
| 20260505150944 | 76 | 210 | 13.0 | 22.0 | 0.00 | 0.00 | 0.00 | 79 | 1002.4 |
| 20260505150444 | 75 | 208 | 13.0 | 22.0 | 0.00 | 0.00 | 0.00 | 79 | 1002.5 |
| 20260505140446 | 73 | 211 | 14.0 | 25.0 | 0.00 | 0.00 | 0.00 | 82 | 1002.1 |
| 20260505123945 | 71 | 209 | 13.0 | 24.0 | 0.00 | 0.00 | 0.00 | 84 | 1002.1 |
| 20260505123445 | 71 | 204 | 15.0 | 24.0 | 0.00 | 0.00 | 0.00 | 84 | 1001.9 |
| 20260505122945 | 71 | 208 | 14.0 | 23.0 | 0.00 | 0.00 | 0.00 | 84 | 1001.8 |
| 20260505122445 | 71 | 208 | 13.0 | 21.0 | 0.00 | 0.00 | 0.00 | 85 | 1001.7 |
| 20260505121945 | 70 | 206 | 12.0 | 23.0 | 0.00 | 0.00 | 0.00 | 84 | 1001.6 |
| 20260505120945 | 70 | 205 | 14.0 | 20.0 | 0.00 | 0.00 | 0.00 | 85 | 1001.5 |
| 20260505120445 | 70 | 203 | 13.0 | 21.0 | 0.00 | 0.00 | 0.00 | 85 | 1001.5 |
| 20260505115445 | 70 | 209 | 14.0 | 23.0 | 0.00 | 0.00 | 0.00 | 85 | 1001.5 |
| 20260505113946 | 70 | 207 | 13.0 | 20.0 | 0.00 | 0.00 | 0.00 | 85 | 1001.4 |
| 20260505112946 | 70 | 205 | 13.0 | 20.0 | 0.00 | 0.00 | 0.00 | 85 | 1001.5 |
| 20260505112445 | 70 | 207 | 11.0 | 21.0 | 0.00 | 0.00 | 0.00 | 85 | 1001.6 |
| 20260505111945 | 70 | 211 | 12.0 | 21.0 | 0.00 | 0.00 | 0.00 | 85 | 1001.5 |
| 20260505111445 | 70 | 209 | 13.0 | 20.0 | 0.00 | 0.00 | 0.00 | 85 | 1001.5 |
| 20260505110445 | 70 | 207 | 12.0 | 18.0 | 0.00 | 0.00 | 0.00 | 84 | 1001.5 |
| 20260505101946 | 71 | 196 | 14.0 | 21.0 | 0.00 | 0.00 | 0.00 | 83 | 1001.6 |
| 20260505101446 | 71 | 194 | 10.0 | 20.0 | 0.00 | 0.00 | 0.00 | 83 | 1001.6 |
| 20260505100946 | 71 | 205 | 12.0 | 21.0 | 0.00 | 0.00 | 0.00 | 83 | 1001.6 |
| 20260505095946 | 71 | 193 | 13.0 | 23.0 | 0.00 | 0.00 | 0.00 | 83 | 1001.6 |
| 20260505095446 | 71 | 199 | 14.0 | 23.0 | 0.00 | 0.00 | 0.00 | 83 | 1001.5 |
| 20260505094945 | 72 | 197 | 13.0 | 18.0 | 0.00 | 0.00 | 0.00 | 83 | 1001.5 |
| 20260505094446 | 72 | 192 | 11.0 | 20.0 | 0.00 | 0.00 | 0.00 | 82 | 1001.5 |
| 20260505093946 | 72 | 185 | 14.0 | 20.0 | 0.00 | 0.00 | 0.00 | 82 | 1001.5 |
| 20260505093445 | 72 | 185 | 11.0 | 23.0 | 0.00 | 0.00 | 0.00 | 82 | 1001.5 |
| 20260505092946 | 72 | 198 | 14.0 | 23.0 | 0.00 | 0.00 | 0.00 | 82 | 1001.5 |
| 20260505092446 | 72 | 186 | 14.0 | 21.0 | 0.00 | 0.00 | 0.00 | 82 | 1001.5 |
| 20260505091946 | 72 | 200 | 15.0 | 21.0 | 0.00 | 0.00 | 0.00 | 82 | 1001.6 |
| 20260505091446 | 72 | 204 | 13.0 | 20.0 | 0.00 | 0.00 | 0.00 | 82 | 1001.7 |
| 20260505090446 | 72 | 202 | 13.0 | 22.0 | 0.00 | 0.00 | 0.00 | 82 | 1001.8 |
| 20260505085946 | 72 | 199 | 13.0 | 22.0 | 0.00 | 0.00 | 0.00 | 82 | 1001.8 |
| 20260505085446 | 72 | 200 | 14.0 | 22.0 | 0.00 | 0.00 | 0.00 | 81 | 1001.8 |
| 20260505084946 | 72 | 200 | 11.0 | 20.0 | 0.00 | 0.00 | 0.00 | 81 | 1001.7 |
| 20260505083946 | 72 | 192 | 13.0 | 23.0 | 0.00 | 0.00 | 0.00 | 81 | 1001.9 |
| 20260505083446 | 72 | 196 | 14.0 | 23.0 | 0.00 | 0.00 | 0.00 | 80 | 1001.8 |
| 20260505082947 | 72 | 199 | 13.0 | 21.0 | 0.00 | 0.00 | 0.00 | 80 | 1001.8 |
| 20260505082446 | 72 | 194 | 12.0 | 20.0 | 0.00 | 0.00 | 0.00 | 80 | 1001.8 |
| 20260505081946 | 72 | 196 | 12.0 | 20.0 | 0.00 | 0.00 | 0.00 | 80 | 1001.9 |
| 20260505081447 | 72 | 197 | 12.0 | 20.0 | 0.00 | 0.00 | 0.00 | 79 | 1001.8 |
| 20260505080946 | 72 | 189 | 12.0 | 20.0 | 0.00 | 0.00 | 0.00 | 79 | 1001.8 |
| 20260505080446 | 73 | 202 | 11.0 | 18.0 | 0.00 | 0.00 | 0.00 | 79 | 1001.9 |
| 20260505075947 | 73 | 193 | 13.0 | 18.0 | 0.00 | 0.00 | 0.00 | 79 | 1001.9 |
| 20260505075446 | 73 | 195 | 11.0 | 20.0 | 0.00 | 0.00 | 0.00 | 79 | 1002.1 |
| 20260505074947 | 73 | 196 | 12.0 | 20.0 | 0.00 | 0.00 | 0.00 | 79 | 1002.1 |
| 20260505073946 | 73 | 193 | 12.0 | 22.0 | 0.00 | 0.00 | 0.00 | 78 | 1002.3 |
| 20260505073446 | 73 | 203 | 13.0 | 18.0 | 0.00 | 0.00 | 0.00 | 78 | 1002.5 |
| 20260505072447 | 73 | 199 | 13.0 | 21.0 | 0.00 | 0.00 | 0.00 | 77 | 1002.7 |
| 20260505071947 | 73 | 199 | 12.0 | 21.0 | 0.00 | 0.00 | 0.00 | 77 | 1002.8 |
| 20260505071446 | 73 | 200 | 13.0 | 20.0 | 0.00 | 0.00 | 0.00 | 77 | 1002.8 |
| 20260505070946 | 74 | 197 | 11.0 | 20.0 | 0.00 | 0.00 | 0.00 | 76 | 1002.8 |
| 20260505070447 | 74 | 194 | 14.0 | 21.0 | 0.00 | 0.00 | 0.00 | 76 | 1002.8 |
| 20260505065947 | 74 | 192 | 13.0 | 21.0 | 0.00 | 0.00 | 0.00 | 75 | 1002.9 |
| 20260505065447 | 74 | 194 | 15.0 | 21.0 | 0.00 | 0.00 | 0.00 | 75 | 1002.9 |
| 20260505064948 | 74 | 203 | 13.0 | 18.0 | 0.00 | 0.00 | 0.00 | 75 | 1003.0 |
| 20260505064446 | 74 | 193 | 12.0 | 20.0 | 0.00 | 0.00 | 0.00 | 75 | 1003.1 |
| 20260505063947 | 74 | 196 | 13.0 | 20.0 | 0.00 | 0.00 | 0.00 | 75 | 1003.1 |
| 20260505063447 | 74 | 196 | 13.0 | 20.0 | 0.00 | 0.00 | 0.00 | 75 | 1003.2 |
| 20260505062947 | 74 | 190 | 13.0 | 20.0 | 0.00 | 0.00 | 0.00 | 75 | 1003.2 |
| 20260505062447 | 74 | 191 | 12.0 | 20.0 | 0.00 | 0.00 | 0.00 | 75 | 1003.2 |
| 20260505061947 | 74 | 191 | 12.0 | 21.0 | 0.00 | 0.00 | 0.00 | 75 | 1003.3 |
| 20260505061447 | 74 | 200 | 13.0 | 21.0 | 0.00 | 0.00 | 0.00 | 75 | 1003.3 |
| 20260505060948 | 74 | 202 | 11.0 | 17.0 | 0.00 | 0.00 | 0.00 | 75 | 1003.4 |
| 20260505060447 | 74 | 193 | 12.0 | 20.0 | 0.00 | 0.00 | 0.00 | 75 | 1003.3 |
| 20260505055948 | 74 | 197 | 14.0 | 20.0 | 0.00 | 0.00 | 0.00 | 75 | 1003.4 |
| 20260505054447 | 74 | 195 | 12.0 | 22.0 | 0.00 | 0.00 | 0.00 | 75 | 1003.3 |
| 20260505053948 | 74 | 195 | 13.0 | 22.0 | 0.00 | 0.00 | 0.00 | 75 | 1003.3 |
| 20260505053447 | 74 | 196 | 13.0 | 20.0 | 0.00 | 0.00 | 0.00 | 75 | 1003.3 |
| 20260505052947 | 74 | 188 | 11.0 | 20.0 | 0.00 | 0.00 | 0.00 | 75 | 1003.3 |
| 20260505051448 | 74 | 184 | 13.0 | 22.0 | 0.00 | 0.00 | 0.00 | 74 | 1003.5 |
| 20260505050948 | 74 | 178 | 13.0 | 22.0 | 0.00 | 0.00 | 0.00 | 74 | 1003.5 |
| 20260505050447 | 74 | 176 | 13.0 | 22.0 | 0.00 | 0.00 | 0.00 | 75 | 1003.7 |
| 20260505041448 | 74 | 180 | 12.0 | 21.0 | 0.00 | 0.00 | 0.00 | 74 | 1003.8 |
| 20260505040948 | 74 | 177 | 12.0 | 21.0 | 0.00 | 0.00 | 0.00 | 74 | 1003.8 |
| 20260505040448 | 74 | 183 | 12.0 | 20.0 | 0.00 | 0.00 | 0.00 | 74 | 1003.9 |
| 20260505035948 | 74 | 178 | 11.0 | 26.0 | 0.00 | 0.00 | 0.00 | 74 | 1003.9 |
| 20260505035447 | 75 | 176 | 12.0 | 26.0 | 0.00 | 0.00 | 0.00 | 73 | 1003.9 |
| 20260505034948 | 75 | 180 | 13.0 | 22.0 | 0.00 | 0.00 | 0.00 | 74 | 1003.9 |
| 20260505034447 | 75 | 175 | 10.0 | 22.0 | 0.00 | 0.00 | 0.00 | 74 | 1003.8 |
| 20260505033948 | 75 | 182 | 11.0 | 22.0 | 0.00 | 0.00 | 0.00 | 74 | 1003.8 |
| 20260505033448 | 75 | 180 | 12.0 | 23.0 | 0.00 | 0.00 | 0.00 | 74 | 1003.7 |
| 20260505032948 | 75 | 174 | 14.0 | 24.0 | 0.00 | 0.00 | 0.00 | 74 | 1003.6 |
| 20260505031949 | 74 | 168 | 12.0 | 20.0 | 0.00 | 0.00 | 0.00 | 74 | 1003.8 |
| 20260505031448 | 74 | 164 | 12.0 | 20.0 | 0.00 | 0.00 | 0.00 | 74 | 1004.0 |
| 20260505030948 | 74 | 165 | 11.0 | 20.0 | 0.00 | 0.00 | 0.00 | 74 | 1003.9 |
| 20260505030449 | 74 | 168 | 11.0 | 21.0 | 0.00 | 0.00 | 0.00 | 74 | 1003.9 |
| 20260505025448 | 74 | 178 | 10.0 | 22.0 | 0.00 | 0.00 | 0.00 | 74 | 1003.9 |
| 20260505024448 | 74 | 168 | 11.0 | 16.0 | 0.00 | 0.00 | 0.00 | 74 | 1003.9 |
| 20260505023949 | 75 | 170 | 12.0 | 16.0 | 0.00 | 0.00 | 0.00 | 73 | 1004.0 |
| 20260505023450 | 75 | 159 | 10.0 | 17.0 | 0.00 | 0.00 | 0.00 | 73 | 1004.0 |
| 20260505022448 | 75 | 165 | 10.0 | 15.0 | 0.00 | 0.00 | 0.00 | 72 | 1004.0 |
| 20260505021949 | 75 | 179 | 11.0 | 15.0 | 0.00 | 0.00 | 0.00 | 72 | 1004.1 |
| 20260505021448 | 75 | 172 | 10.0 | 15.0 | 0.00 | 0.00 | 0.00 | 72 | 1004.0 |
| 20260505020948 | 75 | 180 | 10.0 | 15.0 | 0.00 | 0.00 | 0.00 | 71 | 1004.1 |
| 20260505020449 | 75 | 175 | 11.0 | 15.0 | 0.00 | 0.00 | 0.00 | 71 | 1004.0 |
| 20260505015448 | 76 | 177 | 8.0 | 20.0 | 0.00 | 0.00 | 0.00 | 71 | 1004.0 |
| 20260505014948 | 76 | 173 | 12.0 | 20.0 | 0.00 | 0.00 | 0.00 | 70 | 1003.9 |
| 20260505014448 | 76 | 183 | 10.0 | 22.0 | 0.00 | 0.00 | 0.00 | 70 | 1003.9 |
| 20260505013948 | 76 | 177 | 11.0 | 24.0 | 0.00 | 0.00 | 0.00 | 70 | 1003.9 |
| 20260505013449 | 76 | 185 | 12.0 | 24.0 | 0.00 | 0.00 | 0.00 | 70 | 1003.8 |
| 20260505012949 | 76 | 178 | 12.0 | 25.0 | 0.00 | 0.00 | 0.00 | 70 | 1003.7 |
| 20260505012448 | 76 | 174 | 12.0 | 25.0 | 0.00 | 0.00 | 0.00 | 70 | 1003.8 |
| 20260505011949 | 76 | 175 | 13.0 | 25.0 | 0.00 | 0.00 | 0.00 | 70 | 1003.8 |
| 20260505011449 | 76 | 173 | 10.0 | 24.0 | 0.00 | 0.00 | 0.00 | 69 | 1003.9 |
| 20260505010949 | 76 | 185 | 16.0 | 24.0 | 0.00 | 0.00 | 0.00 | 69 | 1003.7 |
| 20260505010449 | 76 | 177 | 14.0 | 24.0 | 0.00 | 0.00 | 0.00 | 69 | 1003.7 |
| 20260505005949 | 76 | 178 | 12.0 | 24.0 | 0.00 | 0.00 | 0.00 | 69 | 1003.8 |
| 20260505004949 | 77 | 187 | 12.0 | 24.0 | 0.00 | 0.00 | 0.00 | 68 | 1003.7 |
| 20260505004449 | 77 | 191 | 13.0 | 24.0 | 0.00 | 0.00 | 0.00 | 68 | 1003.8 |
| 20260505003949 | 77 | 177 | 16.0 | 26.0 | 0.00 | 0.00 | 0.00 | 68 | 1003.8 |
| 20260505003449 | 77 | 179 | 12.0 | 26.0 | 0.00 | 0.00 | 0.00 | 68 | 1003.8 |
| 20260505002949 | 77 | 183 | 17.0 | 26.0 | 0.00 | 0.00 | 0.00 | 68 | 1003.8 |
| 20260505002449 | 77 | 183 | 10.0 | 17.0 | 0.00 | 0.00 | 0.00 | 68 | 1003.9 |
| 20260505001949 | 77 | 181 | 12.0 | 20.0 | 0.00 | 0.00 | 0.00 | 67 | 1004.0 |
| 20260505001450 | 78 | 180 | 14.0 | 22.0 | 0.00 | 0.00 | 0.00 | 67 | 1003.9 |
| 20260505000950 | 78 | 178 | 14.0 | 24.0 | 0.00 | 0.00 | 0.00 | 66 | 1004.0 |
| 20260505000449 | 78 | 171 | 16.0 | 25.0 | 0.00 | 0.00 | 0.00 | 66 | 1003.9 |
| 20260504235950 | 78 | 184 | 16.0 | 25.0 | 0.00 | 0.00 | 0.00 | 65 | 1003.9 |
| 20260504234950 | 79 | 186 | 12.0 | 23.0 | 0.00 | 0.00 | 0.00 | 66 | 1003.9 |
| 20260504234449 | 79 | 185 | 12.0 | 23.0 | 0.00 | 0.00 | 0.00 | 66 | 1004.0 |
| 20260504232949 | 79 | 177 | 16.0 | 24.0 | 0.00 | 0.00 | 0.00 | 65 | 1004.1 |
| 20260504232450 | 79 | 190 | 17.0 | 26.0 | 0.00 | 0.00 | 0.00 | 65 | 1004.1 |
| 20260504225949 | 80 | 191 | 14.0 | 30.0 | 0.00 | 0.00 | 0.00 | 64 | 1004.4 |
| 20260504224950 | 80 | 191 | 18.0 | 29.0 | 0.00 | 0.00 | 0.00 | 62 | 1004.4 |
| 20260504224450 | 80 | 176 | 18.0 | 26.0 | 0.00 | 0.00 | 0.00 | 62 | 1004.5 |
| 20260504223949 | 80 | 167 | 16.0 | 33.0 | 0.00 | 0.00 | 0.00 | 63 | 1004.5 |
| 20260504223450 | 80 | 197 | 20.0 | 33.0 | 0.00 | 0.00 | 0.00 | 62 | 1004.6 |
| 20260504222950 | 80 | 176 | 16.0 | 26.0 | 0.00 | 0.00 | 0.00 | 63 | 1004.5 |
| 20260504222450 | 81 | 162 | 16.0 | 26.0 | 0.00 | 0.00 | 0.00 | 62 | 1004.5 |
| 20260504221950 | 80 | 196 | 20.0 | 26.0 | 0.00 | 0.00 | 0.00 | 62 | 1004.5 |
| 20260504221450 | 80 | 156 | 17.0 | 33.0 | 0.00 | 0.00 | 0.00 | 62 | 1004.4 |
| 20260504220950 | 81 | 178 | 19.0 | 33.0 | 0.00 | 0.00 | 0.00 | 62 | 1004.5 |
| 20260504220450 | 81 | 184 | 17.0 | 26.0 | 0.00 | 0.00 | 0.00 | 62 | 1004.5 |
| 20260504215950 | 81 | 175 | 14.0 | 25.0 | 0.00 | 0.00 | 0.00 | 62 | 1004.6 |
| 20260504215450 | 81 | 166 | 16.0 | 24.0 | 0.00 | 0.00 | 0.00 | 61 | 1004.6 |
| 20260504214950 | 81 | 163 | 16.0 | 25.0 | 0.00 | 0.00 | 0.00 | 62 | 1004.6 |
| 20260504214450 | 81 | 186 | 16.0 | 25.0 | 0.00 | 0.00 | 0.00 | 62 | 1004.9 |
| 20260504213450 | 80 | 203 | 15.0 | 23.0 | 0.00 | 0.00 | 0.00 | 62 | 1005.1 |
| 20260504212950 | 80 | 173 | 15.0 | 26.0 | 0.00 | 0.00 | 0.00 | 62 | 1005.3 |
| 20260504212450 | 80 | 183 | 16.0 | 26.0 | 0.00 | 0.00 | 0.00 | 62 | 1005.5 |
| 20260504211951 | 80 | 175 | 16.0 | 25.0 | 0.00 | 0.00 | 0.00 | 61 | 1005.5 |
| 20260504210950 | 80 | 178 | 16.0 | 26.0 | 0.00 | 0.00 | 0.00 | 61 | 1005.6 |
| 20260504210451 | 80 | 180 | 17.0 | 26.0 | 0.00 | 0.00 | 0.00 | 62 | 1005.7 |
| 20260504205951 | 80 | 184 | 17.0 | 26.0 | 0.00 | 0.00 | 0.00 | 61 | 1005.8 |
| 20260504204951 | 80 | 194 | 18.0 | 28.0 | 0.00 | 0.00 | 0.00 | 61 | 1006.0 |
| 20260504204450 | 80 | 180 | 17.0 | 26.0 | 0.00 | 0.00 | 0.00 | 61 | 1006.1 |
| 20260504203951 | 79 | 190 | 17.0 | 29.0 | 0.00 | 0.00 | 0.00 | 61 | 1006.3 |
| 20260504203451 | 80 | 176 | 18.0 | 29.0 | 0.00 | 0.00 | 0.00 | 60 | 1006.4 |
| 20260504202451 | 80 | 199 | 15.0 | 26.0 | 0.00 | 0.00 | 0.00 | 61 | 1006.6 |
| 20260504201950 | 80 | 201 | 18.0 | 28.0 | 0.00 | 0.00 | 0.00 | 61 | 1006.6 |
| 20260504201451 | 80 | 208 | 13.0 | 28.0 | 0.00 | 0.00 | 0.00 | 61 | 1006.6 |